Regional Weather Roundup
Issued by NWS

Home | Current Version | Previous Version | Graphics & Text | Print | Product List | Glossary On
Versions: 1 2 3 4 5 6 7 8 9 10 11 12 13 14 15 16 17 18 19 20 21 22 23 24 25 26 27 28 29 30 31 32 33 34 35 36 37 38 39 40 41 42 43 44 45 46 47 48 49 50
000
ASUS43 KLSX 031707
RWRMO

WEATHER SUMMARY FOR MISSOURI
NATIONAL WEATHER SERVICE SPRINGFIELD MO
1200 PM CDT SUN MAY 03 2015

NOTE: "FAIR" INDICATES FEW OR NO CLOUDS BELOW 12,000 FEET WITH NO
       SIGNIFICANT WEATHER AND/OR OBSTRUCTIONS TO VISIBILITY.
       CURRENT SKY AND/OR WEATHER CONDITIONS ARE NOT AVAILABLE FOR
       CHILLICOTHE AND FARMINGTON.

MOZ001>031-035>038-043-044-053-054-031800-
...NORTHERN AND WESTERN MISSOURI...

CITY           SKY/WX    TMP DP  RH WIND       PRES   REMARKS
KANSAS CTY INT MOSUNNY   78  57  48 S28G36    29.85F
KANSAS C DTWN  LGT RAIN  79  56  45 S16G31    29.86S
LEE`S SUMMIT   PTSUNNY   76  56  49 S13G23    29.89S
ST JOSEPH      SUNNY     78  57  48 S21G30    29.82S
CHILLICOTHE      N/A     75  58  55 S14G22    29.88F
KIRKSVILLE     SUNNY     77  59  53 S16G24    29.91F

$$
MOZ066>068-077>081-088>096-101>105-031800-
...SOUTHWEST MISSOURI...

CITY           SKY/WX    TMP DP  RH WIND       PRES   REMARKS
SPRINGFIELD    MOSUNNY   75  56  51 SW13      30.01R
JOPLIN         PTSUNNY   78  55  44 S21G35    29.98F

$$
MOZ032>034-039>042-045>050-055>058-069>072-031800-
...CENTRAL MISSOURI...

CITY           SKY/WX    TMP DP  RH WIND       PRES   REMARKS
COLUMBIA       SUNNY     78  57  48 S13       29.97S
JEFFERSON CITY SUNNY     79  54  41 S9G17     29.96S
ROLLA          MOSUNNY   76  55  48 S13G23    29.99F
SEDALIA        PTSUNNY   77  54  44 SW22G30   29.95S
WHITEMAN AFB   MOSUNNY   78  56  47 SW22G31   29.90S
WARRENSBURG    PTSUNNY   77  54  44 S17G32    29.91S
OSAGE BEACH    MOSUNNY   79  54  41 SW14G21   29.98F

$$
MOZ051-052-059>065-031800-
...EAST CENTRAL MISSOURI...

CITY           SKY/WX    TMP DP  RH WIND       PRES   REMARKS
ST LOUIS INTL  PTSUNNY   81  51  35 SW14G22   30.01F
SPIRIT OF STL  MOSUNNY   78  50  37 S14G21    29.99F
ST CHARLES     SUNNY     80  53  39 S13       29.98F

$$
MOZ072>076-082>087-097>100-106>115-031800-
...SOUTH CENTRAL AND SOUTHEAST MISSOURI...

CITY           SKY/WX    TMP DP  RH WIND       PRES   REMARKS
CAPE GIRARDEAU MOSUNNY   76  46  34 S13       30.08F
FARMINGTON     PTSUNNY   75  48  38 SW12      30.09F
POPLAR BLUFF   PTSUNNY   76  46  34 S12       30.07F
WEST PLAINS    SUNNY     74  51  44 S9        30.07S

$$



USA.gov is the U.S. government's official web portal to all federal, state and local government web resources and services.